Погода Терней

Погода Терней : погода сейчас, прогноз погоды и архив. Всё, что Вы хотите узнать о погоде Терней!

Хотите узнать прогноз погоды Терней? Тогда Вам сюда: Погода Терней

Поиск расширенной информации на нашем сайте:

Другие новости

Новости СМИ2

Главная страница сайта

Новости сайта

02.10.2013

Напоминаем, что на нашем новом сайте вы можете получить высокодетализированные прогнозы погоды по пунктам России, СНГ и мира (включающие важные для авиации метеовеличины, такие как направление и скорость ветра, видимость, явления погоды, количество и форма облачности, нижняя и верхняя граница облачности), а также ознакомиться с разнообразными материалами по авиационной метеорологии и подборкой полезных ссылок на эту тему.

Сайт Метеоцентр.Азия посвящён разработке технологий оптимизации авиаметеорологического обслуживания, включая проектирование и перспективное создание нескольких автоматизированных авиаметеорологических систем:
- система выпуска высокодетальных прогностических карт явлений погоды для нижнего воздушного пространства по России и ближнему зарубежью;
- система верификации прогнозов TAF (выпускаемых синоптиками официальных АМСГ РФ и ближнего зарубежья) и AUTOTAF (выпускаемых сайтом Метеоцентр.Азия) - выявление ошибок, онлайн-сопоставление с фактической погодой METAR, автоматическое внесение коррективов в прогнозы при резком отклонении фактической погоды от прогноза, подсчёт оправдываемости прогнозов по элементам и в целом;
- система обработки, анализа и отображения авиаметеорологической информации для применения провайдерами метеорологической информации.


Погода Терней - сегодня

Время (UTC), дата Ветер
(°,м/с) 
Видим.   Явления Облачность Т
(°С)
Тd
(°С)
f(%) Тe
(°С)
Pmin
(гПа)
dP
(гПа)
Po
(мм)
O2
(г/м3)
Тmin Tmax R s Состояние
почвы
21 18.01.17 270 (З) 20000 м    ясно 
-10.6 -17.9 55 -15  1023.7  0.1  762  321  -13.7      равномерный
мокрый или
старый снег
100% 
00 19.01.17 310 (СЗ) 20000 м    ясно 
-8.3 -17.4 48 -13  1023.5  -0.2  761  318           
03 19.01.17 280 (З) 6-12{13}  20000 м    4/0 средняя, верхняя 
[Ac lent|Ci sp]
-6.6 -18.8 37 -11  1021.6  -1.7  760  315           
06 19.01.17 280 (З) 6-11{12}  20000 м    8/0 средняя, верхняя 
[Ac trans|Ci fib]
-6.7 -18.7 38 -11  1020.7  -1  759  315           
09 19.01.17 280 (З) 5{11}  20000 м    3/0 верхняя 
[Ci fib]
-9.8 -19.1 47 -14  1021.7  0.9  760  319    -5.8       
12 19.01.17 290 (З) 5{10}  20000 м    ясно 
-11.5 -19.3 52 -16  1021.8  760  321           
15 19.01.17 290 (З) 4{10}  20000 м    ясно 
-12.4 -19.5 55 -17  1021.3  -0.5  760  322           
18 19.01.17 280 (З) 20000 м    ясно 
-12.9 -19.5 58 -18  1020.8  -0.6  759  323           
21 19.01.17 300 (СЗ) 20000 м    3/0 верхняя 
[Ci fib]
-13.5 -19.9 59 -18  1020.2  -0.5  759  323  -13.6      равномерный
мокрый или
старый снег
100% 
00 20.01.17 300 (СЗ) 20000 м    6/0 верхняя 
[Ci fib]
-11.8 -20 51 -16  1020.3  0.1  759  321           
03 20.01.17 310 (СЗ) 20000 м    1/0 верхняя 
[Ci sp]
-6.7 -19 37 -8  1019.2  -0.9  758  315           
06 20.01.17 300 (СЗ) 20000 м    3/0 верхняя 
[Ci sp]
-4.4 -18.1 33 -6  1018.5  -0.7  758  312           
09 20.01.17 280 (З) 20000 м    3/0 верхняя 
[Ci sp]
-8.4 -18.4 44 -13  1019.8  1.3  759  317    -4.3       
12 20.01.17 280 (З) 5{11}  20000 м    ясно 
-10.2 -19.6 46 -15  1021.4  1.5  760  320           
15 20.01.17 280 (З) 6-10{11}  20000 м    ясно 
-11.9 -20.4 49 -18  1023  1.5  761  322           
18 20.01.17 290 (З) 5{12}  20000 м    ясно 
-13.2 -21.7 49 -18  1024.1  1.1  762  324           
21 20.01.17 300 (СЗ) 4{10}  20000 м    ясно 
-14 -23.1 46 -19  1024.5  0.4  762  325  -14      мокрый или
старый снег
50-90% 
00 21.01.17 270 (З) 3{11}  20000 м    ясно 
-12.5 -23 41 -16  1025.6  1.1  763  324  -14.5         
03 21.01.17 320 (СЗ) 4{10}  20000 м    ясно 
-7.5 -20.6 34 -11  1023.8  -1.6  762  317           
06 21.01.17 290 (З) 20000 м    ясно 
-5.1 -20.4 29 -6  1021.9  -1.7  760  314           
09 21.01.17 270 (З) 20000 м    4/0 верхняя 
[Cs]
-9.9 -20.2 43 -13  1022.2  0.1  761  319    -4.5       
12 21.01.17 310 (СЗ) 20000 м    4/0 верхняя 
[Cs]
-10.9 -20.4 45 -14  1022.2  761  321           
15 21.01.17 320 (СЗ) 20000 м    3/0 верхняя 
[Ci sp]
-12.6 -20.2 53 -15  1021.1  -1.2  760  322           
18 21.01.17 320 (СЗ) 20000 м    10/0 средняя 
[Ac und]
-13.4 -19.9 58 -16  1019.5  -1.6  758  323           
21 21.01.17 290 (З) 20000 м    4/0 средняя, верхняя 
[As trans|Cs]
-14.2 -19.9 62 -16  1018.3  -1.2  758  324  -15      мокрый или
старый снег
50-90% 
Время (UTC), дата Ветер
(°,м/с) 
Видим.   Явления Облачность Т
(°С)
Тd
(°С)
f(%) Тe
(°С)
Pmin
(гПа)
dP
(гПа)
Po
(мм)
O2
(г/м3)
Тmin Tmax R s Состояние
почвы

Для получения пояснительной информации подведите курсор к названию столбца.

ПОГОДА Терней - архив

Всё, что Вы хотите узнать о погоде Терней - удобно и подробно!

Выберите нужную дату (начиная с 1 января 2015* года) и нажмите кнопку "Найти".
Будут отображены архивные сводки погоды по пункту Терней, начиная с указанной даты.


Отображать данные в формате CSV (для использования в таблицах Excel)


Внимание! Наш архив погоды предназначен исключительно для личного некоммерческого использования в познавательных целях. Если Вам необходимы официальные справки о состоянии погоды (для производственных, юридических, коммерческих и т.п. целей), обращайтесь в органы Росгидромета.

*Примечание: данная дата относится к архиву по метеостанциям СССР (Россия, СНГ, Балтия).
Архив по метеостанциям Зарубежной Европы и Азии (кроме Китая) хранится 10 дней, по другим регионам земного шара (Китай, Африка, Америка, Австралия, Океания) - 1 день.

Терней - район местоположения метеостанции


Название, широта, долгота, высота метеостанции:
Терней 45°ш. 136.6°д. 68 м над ур. моря [Российская Федерация]

Дополнительная информация

В oтличие oт бoльшинства пoгoдных сайтoв мы публикуем пoдрoбную метеoинфoрмацию в детальнoм прoфессиoнальнoм фoрмате.

Характеристики температуры и влажнoсти вoздуха измеряются на высoте 2 м в тени вдали oт зданий и деревьев.
Скoрoсть ветра измеряется на высoте 10 м (на урoвне рoста челoвека скoрoсть ветра ниже в 1.5-2 раза). Если метеoстанция нахoдится в гoрoде или в лесу, тo скoрoсть ветра занижена на 2-4 м/с пo сравнению с oткрытым местoм. Скoрoсть ветра над акватoриями крупных рек и oзёр, а также на вершинах хoлмoв на 2-5 м/с выше, чем в oбычных услoвиях.
Атмoсфернoе давление в разных тoчках местнoсти мoжет значительнo oтличаться oт давления на метеoстанции, в зависимoсти oт услoвий рельефа (при пoдъёме на 10 м давление пoнижается примернo на 1 мм рт.ст.).